This demonstration page uses our WeatherBlox Daily Observations layout. Learn more.

Left ArrowRight Arrow

Hourly Observations for January 3, 2016

Temp ( °F °C ) Dew Point ( °F °C ) Humidity (%) Winds ( mph kmh ) Pressure ( in mb ) Visibility ( mi km ) Precip ( " mm )
12:53 am 00:53 Clear 38 3.3 27 -2.8 65 65 Calm 30.16 1021 10 16 0.00 0.00
1:53 am 01:53 Clear 37 2.8 26 -3.3 65 65 NW 3 6 30.15 1021 10 16 0.00 0.00
2:53 am 02:53 Clear 36 2.2 25 -3.9 64 64 Calm 30.14 1021 10 16 0.00 0.00
3:53 am 03:53 Clear 34 1.1 26 -3.3 73 73 Calm 30.14 1021 10 16 0.00 0.00
4:53 am 04:53 Clear 35 1.7 26 -3.3 70 70 Calm 30.13 1020 10 16 0.00 0.00
5:53 am 05:53 Clear 35 1.7 27 -2.8 72 72 SSE 3 6 30.11 1020 10 16 0.00 0.00
6:53 am 06:53 Clear 36 2.2 26 -3.3 67 67 Calm 30.11 1020 10 16 0.00 0.00
7:53 am 07:53 Sunny 36 2.2 26 -3.3 67 67 WNW 3 6 30.12 1020 10 16 0.00 0.00
8:53 am 08:53 Sunny 38 3.3 25 -3.9 60 60 WNW 6 9 30.13 1020 10 16 0.00 0.00
9:53 am 09:53 Sunny 41 5 25 -3.9 53 53 NW 9 15 30.13 1020 10 16 0.00 0.00
10:53 am 10:53 Sunny 44 6.7 26 -3.3 49 49 NNW 9 15 30.12 1020 10 16 0.00 0.00
11:53 am 11:53 Sunny 46 7.8 24 -4.4 42 42 NW 13 20 30.09 1019 10 16 0.00 0.00
12:53 pm 12:53 Sunny 49 9.4 25 -3.9 39 39 NNW 9 15 30.06 1018 10 16 0.00 0.00
1:53 pm 13:53 Sunny 51 10.6 24 -4.4 35 35 NNW 7 11 30.04 1017 10 16 0.00 0.00
2:53 pm 14:53 Sunny 53 11.7 25 -3.9 34 34 WNW 10 17 30.01 1016 10 16 0.00 0.00
3:53 pm 15:53 Sunny 51 10.6 24 -4.4 35 35 NW 8 13 30.02 1017 10 16 0.00 0.00
4:53 pm 16:53 Sunny 50 10 26 -3.3 39 39 NW 6 9 30.03 1017 10 16 0.00 0.00
5:53 pm 17:53 Clear 47 8.3 27 -2.8 46 46 NW 5 7 30.02 1017 10 16 0.00 0.00
6:53 pm 18:53 Clear 46 7.8 28 -2.2 50 50 Calm 30.03 1017 10 16 0.00 0.00
7:53 pm 19:53 Clear 45 7.2 29 -1.7 54 54 SSW 3 6 30.04 1017 10 16 0.00 0.00
8:53 pm 20:53 Clear 44 6.7 29 -1.7 55 55 VRB 3 6 30.04 1017 10 16 0.00 0.00
9:53 pm 21:53 Clear 43 6.1 29 -1.7 58 58 W 5 7 30.03 1017 10 16 0.00 0.00
10:53 pm 22:53 Clear 42 5.6 27 -2.8 55 55 VRB 3 6 30.03 1017 10 16 0.00 0.00
11:53 pm 23:53 Clear 42 5.6 27 -2.8 55 55 Calm 30.03 1017 10 16 0.00 0.00

Powered by AerisWeather